N72RD KLCH-KRMG

Flight info

Callsign N72RD
Flight time N/A
Altitude 8000
Route LLA TBD GPT NPA MXF RMG
Aircraft CORS/L-SG/S

Departure

Time 2026-05-08 00:43
Airport Lake Charles Regional Airport (KLCH)

Arrival

Time N/A
Airport Richard B Russell Airport (KRMG)
Time Latitude Longitude Altitude Speed Heading
2026-05-08 00:18 30.12768 -93.22271 18 ft 0 kts 70°
2026-05-08 00:25 30.12768 -93.22270 18 ft 0 kts 70°
2026-05-08 00:26 30.12773 -93.22269 18 ft 4 kts 279°
2026-05-08 00:26 30.12708 -93.22310 18 ft 21 kts 133°
2026-05-08 00:26 30.12673 -93.22169 18 ft 18 kts 15°
2026-05-08 00:26 30.12699 -93.22175 18 ft 0 kts 198°
2026-05-08 00:31 30.12694 -93.22177 18 ft 5 kts 197°
2026-05-08 00:31 30.12651 -93.22192 18 ft 8 kts 196°
2026-05-08 00:31 30.12606 -93.22200 18 ft 5 kts 52°
2026-05-08 00:32 30.12636 -93.22205 18 ft 6 kts 333°
2026-05-08 00:32 30.12676 -93.22229 18 ft 7 kts 332°
2026-05-08 00:32 30.12723 -93.22258 18 ft 8 kts 329°
2026-05-08 00:32 30.12724 -93.22274 18 ft 5 kts 149°
2026-05-08 00:33 30.12689 -93.22250 18 ft 6 kts 149°
2026-05-08 00:33 30.12649 -93.22225 18 ft 7 kts 161°
2026-05-08 00:33 30.12598 -93.22218 18 ft 8 kts 207°
2026-05-08 00:33 30.12566 -93.22230 18 ft 0 kts 189°
2026-05-08 00:34 30.12565 -93.22231 18 ft 1 kts 189°
2026-05-08 00:34 30.12558 -93.22230 18 ft 2 kts 173°
2026-05-08 00:35 30.12541 -93.22228 18 ft 4 kts 173°
2026-05-08 00:35 30.12526 -93.22226 18 ft 0 kts 173°
2026-05-08 00:36 30.12505 -93.22227 18 ft 8 kts 184°
2026-05-08 00:36 30.12439 -93.22218 18 ft 11 kts 158°
2026-05-08 00:37 30.12360 -93.22175 18 ft 14 kts 154°
2026-05-08 00:37 30.12274 -93.22125 18 ft 14 kts 155°
2026-05-08 00:37 30.12191 -93.22089 18 ft 12 kts 173°
2026-05-08 00:38 30.12082 -93.22135 18 ft 9 kts 155°
2026-05-08 00:38 30.12030 -93.22107 18 ft 8 kts 154°
2026-05-08 00:38 30.11986 -93.22083 18 ft 7 kts 155°
2026-05-08 00:38 30.11947 -93.22062 18 ft 6 kts 155°
2026-05-08 00:39 30.11901 -93.22037 18 ft 10 kts 155°
2026-05-08 00:39 30.11829 -93.21998 18 ft 13 kts 154°
2026-05-08 00:39 30.11748 -93.21954 17 ft 9 kts 158°
2026-05-08 00:39 30.11692 -93.21927 17 ft 8 kts 157°
2026-05-08 00:40 30.11640 -93.21901 17 ft 8 kts 157°
2026-05-08 00:40 30.11596 -93.21872 17 ft 7 kts 148°
2026-05-08 00:40 30.11553 -93.21853 17 ft 7 kts 158°
2026-05-08 00:40 30.11508 -93.21830 17 ft 8 kts 154°
2026-05-08 00:41 30.11445 -93.21794 17 ft 11 kts 154°
2026-05-08 00:41 30.11367 -93.21750 17 ft 13 kts 156°
2026-05-08 00:41 30.11299 -93.21776 17 ft 12 kts 249°
2026-05-08 00:41 30.11277 -93.21867 16 ft 11 kts 277°
2026-05-08 00:42 30.11298 -93.21939 16 ft 8 kts 327°
2026-05-08 00:42 30.11373 -93.21976 16 ft 25 kts 338°
2026-05-08 00:42 30.11647 -93.22122 19 ft 63 kts 324°
2026-05-08 00:42 30.12187 -93.22405 49 ft 105 kts 337°
2026-05-08 00:43 30.12971 -93.22848 177 ft 141 kts 338°
2026-05-08 00:43 30.13918 -93.23362 504 ft 157 kts 338°
2026-05-08 00:43 30.14932 -93.23964 915 ft 165 kts 335°
2026-05-08 00:43 30.15897 -93.24643 1319 ft 161 kts 332°
2026-05-08 00:44 30.16835 -93.25342 1768 ft 158 kts 331°
2026-05-08 00:44 30.17784 -93.26061 2240 ft 170 kts 330°
2026-05-08 00:44 30.18811 -93.26830 2724 ft 182 kts 329°
2026-05-08 00:44 30.19920 -93.27619 3183 ft 191 kts 329°
2026-05-08 00:45 30.21101 -93.28417 3644 ft 198 kts 330°
2026-05-08 00:45 30.22298 -93.29202 4146 ft 201 kts 330°
2026-05-08 00:45 30.23525 -93.29986 4699 ft 201 kts 330°
2026-05-08 00:45 30.24765 -93.30760 5173 ft 203 kts 330°
2026-05-08 00:46 30.26003 -93.31528 5610 ft 205 kts 330°
2026-05-08 00:46 30.27283 -93.32319 6057 ft 209 kts 330°
2026-05-08 00:46 30.28592 -93.33126 6500 ft 215 kts 330°
2026-05-08 00:46 30.29913 -93.33938 6927 ft 218 kts 330°
2026-05-08 00:47 30.31277 -93.34768 7376 ft 221 kts 330°
2026-05-08 00:47 30.32525 -93.35788 7696 ft 226 kts 309°
2026-05-08 00:47 30.33154 -93.37474 7867 ft 237 kts 277°
2026-05-08 00:47 30.32897 -93.39369 7950 ft 247 kts 247°
2026-05-08 00:48 30.32235 -93.40463 7973 ft 251 kts 226°
2026-05-08 00:48 30.30123 -93.41563 7996 ft 260 kts 187°
2026-05-08 00:48 30.28922 -93.41435 8003 ft 265 kts 167°
2026-05-08 00:48 30.27305 -93.40398 8006 ft 272 kts 139°
2026-05-08 00:49 30.26270 -93.38551 8009 ft 275 kts 110°
2026-05-08 00:49 30.25906 -93.36433 8046 ft 269 kts 98°
2026-05-08 00:49 30.25702 -93.34299 8052 ft 266 kts 96°
2026-05-08 00:49 30.25533 -93.32168 8025 ft 264 kts 95°
2026-05-08 00:50 30.25369 -93.30047 8010 ft 259 kts 95°
2026-05-08 00:50 30.25068 -93.28058 7987 ft 251 kts 106°
2026-05-08 00:50 30.24503 -93.26175 7974 ft 243 kts 113°
2026-05-08 00:50 30.23813 -93.24417 7982 ft 237 kts 117°
2026-05-08 00:51 30.23044 -93.22751 7974 ft 231 kts 121°
2026-05-08 00:51 30.22246 -93.21180 7982 ft 227 kts 122°
2026-05-08 00:51 30.21424 -93.19624 7985 ft 223 kts 123°
2026-05-08 00:51 30.20594 -93.18112 7982 ft 220 kts 126°
2026-05-08 00:52 30.19659 -93.16725 7986 ft 216 kts 131°
2026-05-08 00:52 30.18721 -93.15410 7990 ft 214 kts 130°
2026-05-08 00:52 30.17793 -93.14001 7997 ft 220 kts 128°
2026-05-08 00:52 30.16868 -93.12566 8001 ft 223 kts 128°
2026-05-08 00:53 30.15913 -93.11140 7998 ft 224 kts 130°
2026-05-08 00:53 30.14955 -93.09726 7998 ft 225 kts 129°
2026-05-08 00:53 30.13995 -93.08282 7998 ft 227 kts 129°
2026-05-08 00:53 30.13026 -93.06813 7998 ft 229 kts 129°
2026-05-08 00:54 30.12062 -93.05367 7996 ft 230 kts 129°
2026-05-08 00:54 30.11076 -93.03901 8000 ft 231 kts 129°
2026-05-08 00:54 30.10084 -93.02416 7995 ft 232 kts 129°
2026-05-08 00:54 30.09112 -93.00949 7997 ft 233 kts 129°
2026-05-08 00:55 30.08118 -92.99458 7991 ft 233 kts 129°
2026-05-08 00:55 30.07110 -92.97956 7998 ft 234 kts 129°
2026-05-08 00:55 30.06126 -92.96488 7997 ft 234 kts 129°
2026-05-08 00:55 30.05132 -92.94995 7999 ft 234 kts 129°
2026-05-08 00:56 30.04129 -92.93494 7997 ft 235 kts 129°
2026-05-08 00:56 30.03136 -92.92013 7995 ft 235 kts 129°
2026-05-08 00:56 30.02128 -92.90509 8001 ft 236 kts 129°
2026-05-08 00:56 30.01122 -92.89004 8000 ft 236 kts 129°
2026-05-08 00:57 30.00124 -92.87510 8002 ft 237 kts 129°
2026-05-08 00:57 29.99115 -92.86010 7998 ft 237 kts 129°
2026-05-08 00:57 29.98102 -92.84498 7998 ft 237 kts 129°
2026-05-08 00:57 29.97102 -92.83003 8003 ft 237 kts 129°
2026-05-08 00:58 29.96096 -92.81505 7998 ft 238 kts 129°
2026-05-08 00:58 29.95073 -92.79983 7999 ft 238 kts 129°
2026-05-08 00:58 29.94058 -92.78472 8001 ft 237 kts 129°
2026-05-08 00:58 29.93049 -92.76960 8001 ft 237 kts 129°
2026-05-08 00:59 29.92048 -92.75473 8000 ft 237 kts 129°
2026-05-08 00:59 29.91039 -92.73973 8001 ft 237 kts 129°
2026-05-08 00:59 29.90025 -92.72464 7999 ft 237 kts 129°
2026-05-08 00:59 29.89014 -92.70961 8001 ft 237 kts 129°
2026-05-08 01:00 29.88009 -92.69466 7995 ft 237 kts 129°
2026-05-08 01:00 29.86992 -92.67955 7994 ft 237 kts 129°
2026-05-08 01:00 29.85988 -92.66468 7997 ft 237 kts 129°
2026-05-08 01:00 29.84980 -92.64972 7996 ft 237 kts 129°
2026-05-08 01:01 29.83972 -92.63476 7999 ft 237 kts 129°
2026-05-08 01:01 29.82965 -92.61975 7996 ft 237 kts 129°
2026-05-08 01:01 29.81947 -92.60464 7995 ft 237 kts 130°
2026-05-08 01:01 29.80938 -92.58974 7993 ft 237 kts 130°
2026-05-08 01:02 29.79901 -92.57440 7995 ft 237 kts 129°
2026-05-08 01:02 29.78905 -92.55959 7998 ft 237 kts 130°
2026-05-08 01:02 29.77889 -92.54448 7996 ft 237 kts 129°
2026-05-08 01:02 29.76871 -92.52945 8006 ft 237 kts 130°
2026-05-08 01:03 29.75847 -92.51438 8001 ft 238 kts 129°
2026-05-08 01:03 29.74844 -92.49951 7997 ft 238 kts 129°
2026-05-08 01:03 29.73831 -92.48449 7998 ft 238 kts 130°
2026-05-08 01:03 29.72804 -92.46933 7995 ft 238 kts 130°
2026-05-08 01:04 29.71785 -92.45431 7994 ft 238 kts 129°
2026-05-08 01:04 29.70773 -92.43929 7992 ft 237 kts 129°
2026-05-08 01:04 29.69765 -92.42442 7933 ft 240 kts 130°
2026-05-08 01:04 29.68725 -92.40915 7883 ft 241 kts 130°
2026-05-08 01:05 29.67970 -92.39180 7756 ft 249 kts 103°
2026-05-08 01:05 29.68051 -92.37196 7542 ft 257 kts 73°
2026-05-08 01:05 29.68764 -92.35343 7702 ft 246 kts 63°
2026-05-08 01:05 29.69539 -92.33629 7839 ft 239 kts 62°
2026-05-08 01:06 29.70289 -92.31940 7914 ft 237 kts 63°
2026-05-08 01:06 29.70979 -92.30227 7949 ft 237 kts 66°
2026-05-08 01:06 29.71608 -92.28464 7977 ft 237 kts 68°
2026-05-08 01:06 29.72202 -92.26686 7986 ft 238 kts 69°
2026-05-08 01:07 29.72779 -92.24910 7991 ft 239 kts 69°
2026-05-08 01:07 29.73253 -92.23060 7989 ft 240 kts 76°
2026-05-08 01:07 29.73616 -92.21188 7992 ft 240 kts 77°
2026-05-08 01:07 29.74033 -92.19302 7994 ft 241 kts 74°
2026-05-08 01:08 29.74482 -92.17467 7991 ft 241 kts 74°
2026-05-08 01:08 29.74908 -92.15590 7990 ft 242 kts 76°
2026-05-08 01:08 29.75318 -92.13707 7989 ft 242 kts 76°
2026-05-08 01:08 29.75738 -92.11850 7987 ft 243 kts 75°
2026-05-08 01:09 29.76175 -92.09965 7988 ft 243 kts 75°
2026-05-08 01:09 29.76601 -92.08083 7987 ft 243 kts 75°
2026-05-08 01:09 29.77016 -92.06215 7988 ft 242 kts 75°
2026-05-08 01:09 29.77442 -92.04332 7987 ft 242 kts 75°
2026-05-08 01:10 29.77870 -92.02452 7986 ft 242 kts 75°
2026-05-08 01:10 29.78296 -92.00560 7987 ft 243 kts 75°
2026-05-08 01:10 29.78714 -91.98694 7987 ft 243 kts 75°
2026-05-08 01:10 29.79130 -91.96851 7985 ft 243 kts 75°
2026-05-08 01:11 29.79558 -91.94952 7985 ft 243 kts 75°
2026-05-08 01:11 29.79984 -91.93055 7984 ft 243 kts 75°
2026-05-08 01:11 29.80400 -91.91201 7986 ft 243 kts 75°
2026-05-08 01:11 29.80827 -91.89305 7997 ft 243 kts 75°
2026-05-08 01:12 29.81247 -91.87433 7994 ft 243 kts 75°
2026-05-08 01:12 29.81670 -91.85545 7999 ft 243 kts 75°
2026-05-08 01:12 29.82091 -91.83670 7998 ft 243 kts 75°
2026-05-08 01:12 29.82513 -91.81783 7997 ft 243 kts 75°
2026-05-08 01:13 29.82932 -91.79910 7997 ft 243 kts 75°
2026-05-08 01:13 29.83356 -91.78016 7997 ft 243 kts 75°
2026-05-08 01:13 29.83778 -91.76125 7998 ft 243 kts 75°
2026-05-08 01:13 29.84200 -91.74234 7996 ft 243 kts 75°
2026-05-08 01:14 29.84615 -91.72378 7999 ft 243 kts 75°
2026-05-08 01:14 29.85040 -91.70471 7996 ft 243 kts 75°
2026-05-08 01:14 29.85460 -91.68582 7997 ft 243 kts 75°
2026-05-08 01:14 29.85880 -91.66697 7997 ft 243 kts 75°
2026-05-08 01:15 29.86304 -91.64789 7996 ft 244 kts 75°
2026-05-08 01:15 29.86721 -91.62917 7997 ft 243 kts 75°
2026-05-08 01:15 29.87142 -91.61026 7995 ft 243 kts 75°
2026-05-08 01:15 29.87557 -91.59151 8003 ft 243 kts 75°
2026-05-08 01:16 29.87973 -91.57276 8003 ft 242 kts 75°
2026-05-08 01:16 29.88393 -91.55384 8002 ft 242 kts 75°
2026-05-08 01:16 29.88809 -91.53504 8003 ft 242 kts 75°
2026-05-08 01:16 29.89228 -91.51613 8006 ft 242 kts 75°
2026-05-08 01:17 29.89639 -91.49752 8008 ft 242 kts 75°
2026-05-08 01:17 29.90055 -91.47868 8009 ft 242 kts 75°
2026-05-08 01:17 29.90471 -91.45990 8011 ft 242 kts 75°
2026-05-08 01:17 29.90882 -91.44128 8012 ft 242 kts 75°
2026-05-08 01:18 29.91302 -91.42225 8009 ft 242 kts 75°
2026-05-08 01:18 29.91717 -91.40339 8009 ft 243 kts 75°
2026-05-08 01:18 29.92133 -91.38447 8010 ft 243 kts 75°
2026-05-08 01:18 29.92546 -91.36574 8009 ft 243 kts 75°
2026-05-08 01:19 29.92965 -91.34670 8010 ft 242 kts 75°
2026-05-08 01:19 29.93375 -91.32808 8009 ft 243 kts 75°
2026-05-08 01:19 29.93794 -91.30895 8010 ft 249 kts 75°
2026-05-08 01:19 29.94230 -91.28913 8017 ft 255 kts 75°
2026-05-08 01:20 29.94673 -91.26893 8016 ft 259 kts 75°
2026-05-08 01:20 29.95115 -91.24877 8015 ft 263 kts 75°
2026-05-08 01:20 29.95567 -91.22808 8013 ft 266 kts 75°
2026-05-08 01:20 29.96018 -91.20748 8010 ft 269 kts 75°
2026-05-08 01:21 29.96485 -91.18613 8009 ft 271 kts 75°
2026-05-08 01:21 29.96943 -91.16513 8002 ft 273 kts 75°
2026-05-08 01:21 29.97410 -91.14374 8004 ft 275 kts 75°
2026-05-08 01:21 29.97875 -91.12240 8005 ft 276 kts 75°
2026-05-08 01:22 29.98346 -91.10079 8004 ft 277 kts 75°
2026-05-08 01:22 29.98657 -91.08651 8003 ft 277 kts 75°
2026-05-08 01:22 29.99282 -91.05777 8006 ft 279 kts 75°
2026-05-08 01:22 29.99753 -91.03610 8004 ft 279 kts 75°
2026-05-08 01:23 30.00068 -91.02158 8004 ft 280 kts 75°
2026-05-08 01:23 30.00699 -90.99251 8004 ft 280 kts 75°
2026-05-08 01:23 30.01019 -90.97778 8005 ft 281 kts 75°
2026-05-08 01:23 30.01491 -90.95597 8003 ft 282 kts 75°
2026-05-08 01:24 30.01967 -90.93396 8008 ft 282 kts 75°
2026-05-08 01:24 30.02444 -90.91189 8008 ft 282 kts 75°
2026-05-08 01:24 30.02924 -90.88970 8004 ft 283 kts 75°
2026-05-08 01:24 30.03393 -90.86796 8007 ft 283 kts 75°
2026-05-08 01:25 30.03874 -90.84563 8008 ft 283 kts 75°
2026-05-08 01:25 30.04344 -90.82384 8008 ft 283 kts 75°
2026-05-08 01:25 30.04823 -90.80165 8006 ft 282 kts 75°
2026-05-08 01:25 30.05292 -90.77984 8007 ft 282 kts 75°
2026-05-08 01:26 30.05763 -90.75785 8005 ft 282 kts 75°
2026-05-08 01:26 30.06242 -90.73559 8009 ft 282 kts 75°
2026-05-08 01:26 30.06717 -90.71347 8009 ft 281 kts 75°
2026-05-08 01:26 30.07183 -90.69168 8011 ft 282 kts 75°
2026-05-08 01:27 30.07655 -90.66971 8009 ft 282 kts 75°
2026-05-08 01:27 30.08125 -90.64770 8009 ft 282 kts 75°
2026-05-08 01:27 30.08596 -90.62570 8009 ft 282 kts 75°
2026-05-08 01:27 30.09061 -90.60393 8011 ft 282 kts 75°
2026-05-08 01:28 30.09529 -90.58200 8008 ft 282 kts 75°
2026-05-08 01:28 30.09999 -90.55992 8008 ft 282 kts 75°
2026-05-08 01:28 30.10472 -90.53783 8008 ft 282 kts 75°
2026-05-08 01:28 30.10939 -90.51579 8010 ft 282 kts 75°
2026-05-08 01:29 30.11359 -90.49607 8007 ft 282 kts 75°
2026-05-08 01:29 30.11801 -90.47530 8008 ft 282 kts 75°
2026-05-08 01:29 30.12257 -90.45384 8010 ft 282 kts 75°
2026-05-08 01:29 30.12724 -90.43177 8009 ft 282 kts 75°
2026-05-08 01:30 30.13193 -90.40969 8008 ft 282 kts 75°
2026-05-08 01:30 30.13660 -90.38765 8007 ft 282 kts 75°
2026-05-08 01:30 30.14129 -90.36550 7995 ft 282 kts 75°
2026-05-08 01:30 30.14589 -90.34369 7996 ft 282 kts 75°
2026-05-08 01:31 30.15055 -90.32167 7995 ft 282 kts 75°
2026-05-08 01:31 30.15522 -90.29953 7995 ft 283 kts 75°
2026-05-08 01:31 30.15983 -90.27766 7994 ft 283 kts 75°
2026-05-08 01:31 30.16454 -90.25531 7997 ft 283 kts 75°
2026-05-08 01:32 30.16918 -90.23324 7994 ft 283 kts 75°
2026-05-08 01:32 30.17379 -90.21133 7996 ft 283 kts 75°
2026-05-08 01:32 30.17845 -90.18917 7996 ft 283 kts 75°
2026-05-08 01:32 30.18311 -90.16692 8001 ft 283 kts 75°
2026-05-08 01:33 30.18777 -90.14474 8002 ft 283 kts 75°
2026-05-08 01:33 30.19243 -90.12256 8001 ft 283 kts 75°
2026-05-08 01:33 30.19706 -90.10040 8002 ft 283 kts 75°
2026-05-08 01:33 30.20166 -90.07835 8000 ft 283 kts 75°
2026-05-08 01:34 30.20631 -90.05613 8000 ft 283 kts 75°
2026-05-08 01:34 30.21088 -90.03425 8001 ft 283 kts 75°
2026-05-08 01:34 30.21557 -90.01177 8002 ft 283 kts 75°
2026-05-08 01:34 30.22015 -89.98978 8002 ft 283 kts 75°
2026-05-08 01:35 30.22477 -89.96763 7995 ft 283 kts 75°
2026-05-08 01:35 30.22933 -89.94578 7993 ft 283 kts 75°
2026-05-08 01:35 30.23393 -89.92352 7994 ft 283 kts 75°
2026-05-08 01:35 30.23856 -89.90123 7993 ft 283 kts 75°
2026-05-08 01:36 30.24321 -89.87892 7993 ft 284 kts 75°
2026-05-08 01:36 30.24773 -89.85702 7991 ft 284 kts 75°
2026-05-08 01:36 30.25237 -89.83467 7991 ft 284 kts 75°
2026-05-08 01:36 30.25697 -89.81242 7991 ft 284 kts 75°
2026-05-08 01:37 30.26154 -89.79028 7990 ft 284 kts 75°
2026-05-08 01:37 30.26615 -89.76801 7990 ft 284 kts 75°
2026-05-08 01:37 30.27073 -89.74580 7992 ft 284 kts 75°
2026-05-08 01:37 30.27532 -89.72357 7993 ft 284 kts 75°
2026-05-08 01:38 30.27989 -89.70138 7992 ft 284 kts 75°
2026-05-08 01:38 30.28447 -89.67910 7992 ft 284 kts 75°
2026-05-08 01:38 30.28907 -89.65670 7992 ft 284 kts 75°
2026-05-08 01:38 30.29365 -89.63444 7994 ft 284 kts 75°
2026-05-08 01:39 30.29826 -89.61197 7995 ft 285 kts 75°
2026-05-08 01:39 30.30276 -89.58997 7993 ft 285 kts 75°
2026-05-08 01:39 30.30736 -89.56755 7990 ft 285 kts 75°
2026-05-08 01:39 30.31190 -89.54544 7994 ft 285 kts 75°
2026-05-08 01:40 30.31645 -89.52308 7990 ft 285 kts 75°
2026-05-08 01:40 30.32106 -89.50052 7992 ft 285 kts 75°
2026-05-08 01:40 30.32565 -89.47808 7991 ft 285 kts 75°
2026-05-08 01:40 30.33015 -89.45597 7991 ft 285 kts 75°
2026-05-08 01:41 30.33472 -89.43356 7990 ft 286 kts 75°
2026-05-08 01:41 30.33934 -89.41090 7990 ft 286 kts 75°
2026-05-08 01:41 30.34384 -89.38873 7992 ft 286 kts 75°
2026-05-08 01:41 30.34842 -89.36618 7988 ft 286 kts 75°
2026-05-08 01:42 30.35296 -89.34386 7989 ft 286 kts 75°
2026-05-08 01:42 30.35754 -89.32123 7989 ft 286 kts 75°
2026-05-08 01:42 30.36202 -89.29909 7991 ft 286 kts 75°
2026-05-08 01:42 30.36661 -89.27645 7990 ft 286 kts 75°
2026-05-08 01:43 30.37114 -89.25406 7989 ft 286 kts 75°
2026-05-08 01:43 30.37569 -89.23149 7992 ft 286 kts 75°
2026-05-08 01:43 30.38023 -89.20901 7991 ft 286 kts 75°
2026-05-08 01:43 30.38471 -89.18683 7989 ft 286 kts 75°
2026-05-08 01:44 30.38922 -89.16441 7989 ft 286 kts 75°
2026-05-08 01:44 30.39375 -89.14188 7992 ft 286 kts 75°
2026-05-08 01:44 30.39825 -89.11952 7992 ft 286 kts 75°
2026-05-08 01:44 30.40227 -89.09691 7988 ft 287 kts 80°
2026-05-08 01:45 30.40457 -89.07378 7994 ft 287 kts 83°
2026-05-08 01:45 30.40622 -89.05092 7991 ft 287 kts 84°
2026-05-08 01:45 30.40636 -89.02740 7991 ft 287 kts 92°
2026-05-08 01:45 30.40507 -89.00452 7993 ft 287 kts 93°
2026-05-08 01:46 30.40461 -88.98131 7971 ft 287 kts 89°
2026-05-08 01:46 30.40449 -88.95832 7972 ft 287 kts 90°
2026-05-08 01:46 30.40377 -88.93504 7971 ft 288 kts 92°
2026-05-08 01:46 30.40313 -88.91186 7973 ft 288 kts 90°
2026-05-08 01:47 30.40278 -88.88884 7972 ft 288 kts 90°
2026-05-08 01:47 30.40227 -88.86557 7972 ft 288 kts 91°
2026-05-08 01:47 30.40163 -88.84237 7972 ft 288 kts 91°
2026-05-08 01:48 30.40067 -88.79587 7974 ft 288 kts 91°
2026-05-08 01:48 30.40006 -88.77259 7975 ft 288 kts 91°
2026-05-08 01:48 30.39951 -88.74978 7978 ft 288 kts 91°
2026-05-08 01:48 30.39900 -88.72657 7979 ft 288 kts 91°
2026-05-08 01:49 30.39845 -88.70333 8012 ft 288 kts 91°
2026-05-08 01:49 30.39787 -88.68017 8017 ft 288 kts 91°
2026-05-08 01:49 30.39732 -88.65721 8019 ft 288 kts 91°
2026-05-08 01:49 30.39677 -88.63389 8021 ft 288 kts 91°
2026-05-08 01:50 30.39619 -88.61072 8022 ft 288 kts 91°
2026-05-08 01:50 30.39560 -88.58751 8021 ft 288 kts 91°
2026-05-08 01:50 30.39504 -88.56440 8022 ft 288 kts 91°
2026-05-08 01:50 30.39448 -88.54122 8021 ft 288 kts 91°
2026-05-08 01:51 30.39387 -88.51795 8021 ft 288 kts 91°
2026-05-08 01:51 30.39328 -88.49473 8024 ft 288 kts 91°
2026-05-08 01:51 30.39269 -88.47155 8021 ft 288 kts 91°
2026-05-08 01:51 30.39229 -88.45604 8025 ft 288 kts 91°
2026-05-08 01:52 30.39150 -88.42530 8021 ft 288 kts 91°
2026-05-08 01:52 30.39110 -88.40980 8022 ft 288 kts 91°
2026-05-08 01:52 30.39048 -88.38652 8022 ft 288 kts 91°
2026-05-08 01:52 30.38986 -88.36340 8024 ft 288 kts 91°
2026-05-08 01:53 30.38925 -88.34017 8022 ft 288 kts 91°
2026-05-08 01:53 30.38862 -88.31692 8023 ft 288 kts 91°
2026-05-08 01:53 30.38800 -88.29360 8023 ft 288 kts 91°
2026-05-08 01:53 30.38738 -88.27062 8023 ft 288 kts 91°
2026-05-08 01:54 30.38674 -88.24713 8024 ft 288 kts 91°
2026-05-08 01:54 30.38611 -88.22412 8028 ft 288 kts 91°
2026-05-08 01:54 30.38544 -88.20069 8029 ft 288 kts 91°
2026-05-08 01:54 30.38482 -88.17781 8029 ft 288 kts 91°
2026-05-08 01:55 30.38418 -88.15427 8032 ft 288 kts 91°
2026-05-08 01:55 30.38350 -88.13106 8030 ft 288 kts 91°
2026-05-08 01:55 30.38284 -88.10795 8029 ft 288 kts 91°
2026-05-08 01:55 30.38219 -88.08473 8031 ft 288 kts 91°
2026-05-08 01:56 30.38153 -88.06153 8029 ft 288 kts 91°
2026-05-08 01:56 30.38084 -88.03820 8029 ft 288 kts 91°
2026-05-08 01:56 30.38017 -88.01512 8028 ft 288 kts 91°
2026-05-08 01:56 30.37950 -87.99197 8029 ft 288 kts 91°
2026-05-08 01:57 30.37881 -87.96871 8034 ft 289 kts 91°
2026-05-08 01:57 30.37813 -87.94570 8029 ft 289 kts 91°
2026-05-08 01:57 30.37744 -87.92235 8031 ft 289 kts 91°
2026-05-08 01:57 30.37674 -87.89900 8031 ft 289 kts 91°
2026-05-08 01:58 30.37603 -87.87558 8029 ft 289 kts 91°
2026-05-08 01:58 30.37533 -87.85244 8029 ft 289 kts 91°
2026-05-08 01:58 30.37462 -87.82916 8031 ft 289 kts 91°
2026-05-08 01:58 30.37391 -87.80583 8029 ft 289 kts 91°
2026-05-08 01:59 30.37319 -87.78276 8029 ft 289 kts 91°
2026-05-08 01:59 30.37247 -87.75951 7998 ft 289 kts 91°
2026-05-08 01:59 30.37174 -87.73610 7994 ft 289 kts 91°
2026-05-08 01:59 30.37102 -87.71304 7993 ft 289 kts 91°
2026-05-08 02:00 30.37028 -87.68978 7991 ft 289 kts 91°
2026-05-08 02:00 30.36955 -87.66644 7995 ft 289 kts 91°
2026-05-08 02:00 30.36881 -87.64342 7993 ft 289 kts 91°
2026-05-08 02:00 30.36806 -87.62010 7993 ft 288 kts 91°
2026-05-08 02:01 30.36731 -87.59701 7995 ft 288 kts 91°
2026-05-08 02:01 30.36656 -87.57378 7995 ft 288 kts 91°
2026-05-08 02:01 30.36581 -87.55053 7997 ft 288 kts 91°
2026-05-08 02:01 30.36505 -87.52754 7996 ft 288 kts 91°
2026-05-08 02:02 30.36428 -87.50427 7994 ft 288 kts 91°
2026-05-08 02:02 30.36351 -87.48088 8005 ft 288 kts 91°
2026-05-08 02:02 30.36275 -87.45769 8006 ft 288 kts 91°
2026-05-08 02:02 30.36196 -87.43464 8005 ft 288 kts 91°
2026-05-08 02:03 30.36118 -87.41140 8010 ft 287 kts 91°
2026-05-08 02:03 30.36040 -87.38829 8005 ft 287 kts 91°
2026-05-08 02:03 30.35963 -87.36523 8001 ft 287 kts 91°
2026-05-08 02:03 30.36120 -87.34235 7976 ft 285 kts 72°
2026-05-08 02:04 30.37091 -87.32253 7982 ft 279 kts 44°
2026-05-08 02:04 30.38614 -87.30939 8010 ft 273 kts 27°
2026-05-08 02:04 30.40289 -87.29851 8012 ft 272 kts 24°
2026-05-08 02:04 30.41947 -87.28849 8009 ft 273 kts 23°
2026-05-08 02:05 30.43672 -87.27970 8007 ft 271 kts 16°
2026-05-08 02:05 30.45458 -87.27243 8021 ft 271 kts 15°
2026-05-08 02:05 30.47209 -87.26437 8027 ft 272 kts 19°
2026-05-08 02:05 30.48966 -87.25583 8021 ft 272 kts 18°
2026-05-08 02:06 30.50725 -87.24794 8024 ft 272 kts 16°
2026-05-08 02:06 30.52504 -87.23993 8019 ft 272 kts 17°
2026-05-08 02:06 30.54270 -87.23164 8022 ft 273 kts 17°
2026-05-08 02:06 30.56012 -87.22357 8023 ft 272 kts 17°
2026-05-08 02:07 30.57775 -87.21555 8021 ft 272 kts 17°
2026-05-08 02:07 30.59520 -87.20751 8020 ft 273 kts 17°
2026-05-08 02:07 30.61291 -87.19929 8016 ft 273 kts 17°
2026-05-08 02:07 30.63052 -87.19117 8015 ft 272 kts 17°
2026-05-08 02:08 30.64825 -87.18304 8011 ft 272 kts 17°
2026-05-08 02:08 30.66569 -87.17497 8019 ft 273 kts 17°
2026-05-08 02:08 30.68334 -87.16680 8008 ft 273 kts 17°
2026-05-08 02:08 30.70096 -87.15868 8013 ft 273 kts 17°
2026-05-08 02:09 30.71868 -87.15049 8010 ft 273 kts 16°
2026-05-08 02:09 30.73643 -87.14228 8012 ft 273 kts 16°
2026-05-08 02:09 30.75425 -87.13404 8012 ft 274 kts 16°
2026-05-08 02:09 30.77174 -87.12595 8012 ft 274 kts 16°
2026-05-08 02:10 30.78948 -87.11775 8011 ft 274 kts 16°
2026-05-08 02:10 30.80728 -87.10950 8010 ft 274 kts 16°
2026-05-08 02:10 30.82508 -87.10127 8010 ft 274 kts 16°
2026-05-08 02:10 30.84293 -87.09298 8010 ft 275 kts 16°
2026-05-08 02:11 30.86059 -87.08480 8005 ft 275 kts 16°
2026-05-08 02:11 30.87827 -87.07662 8008 ft 275 kts 15°
2026-05-08 02:11 30.89604 -87.06835 8008 ft 275 kts 15°
2026-05-08 02:11 30.91389 -87.06010 8005 ft 275 kts 15°
2026-05-08 02:12 30.93171 -87.05183 8004 ft 275 kts 15°
2026-05-08 02:12 30.94940 -87.04359 8009 ft 275 kts 15°
2026-05-08 02:12 30.96745 -87.03521 8003 ft 276 kts 15°
2026-05-08 02:12 30.98503 -87.02705 8004 ft 276 kts 15°
2026-05-08 02:13 31.00290 -87.01875 8003 ft 275 kts 15°
2026-05-08 02:13 31.02075 -87.01042 8005 ft 276 kts 15°
2026-05-08 02:13 31.03865 -87.00210 8004 ft 276 kts 15°
2026-05-08 02:13 31.05626 -86.99392 8004 ft 276 kts 15°
2026-05-08 02:14 31.07408 -86.98560 8007 ft 276 kts 15°
2026-05-08 02:14 31.09208 -86.97722 8012 ft 276 kts 16°
2026-05-08 02:14 31.10969 -86.96902 8016 ft 277 kts 16°
2026-05-08 02:14 31.12782 -86.96056 8019 ft 277 kts 16°
2026-05-08 02:15 31.14561 -86.95446 8061 ft 255 kts 341°
2026-05-08 02:15 31.14235 -86.96228 5114 ft 323 kts 178°
2026-05-08 02:15 31.11956 -86.96102 3913 ft 318 kts 186°
2026-05-08 02:15 31.09884 -86.96703 2709 ft 307 kts 211°
2026-05-08 02:16 31.08988 -86.98760 1920 ft 280 kts 250°
2026-05-08 02:16 31.08184 -87.00591 2144 ft 235 kts 241°
2026-05-08 02:16 31.07405 -87.02129 1502 ft 213 kts 242°
2026-05-08 02:16 31.06663 -87.03631 1004 ft 207 kts 243°
2026-05-08 02:17 31.06100 -87.05092 479 ft 182 kts 250°
2026-05-08 02:17 31.05613 -87.06177 156 ft 125 kts 246°
2026-05-08 02:17 31.05287 -87.06904 92 ft 80 kts 248°
2026-05-08 02:17 31.05160 -87.07336 89 ft 27 kts 238°
2026-05-08 02:18 31.05064 -87.07446 90 ft 16 kts 208°
2026-05-08 02:18 31.05039 -87.07453 91 ft 0 kts 36°